Year,Month,Day,Hour,Minute,Value (Times are PST for temperature in C)
2012,05,18,00,00,4.90
2012,05,18,00,01,4.80
2012,05,18,00,02,4.80
2012,05,18,00,03,4.80
2012,05,18,00,04,4.80
2012,05,18,00,05,4.80
2012,05,18,00,06,4.80
2012,05,18,00,07,4.80
2012,05,18,00,08,4.70
2012,05,18,00,09,4.70
2012,05,18,00,10,4.70
2012,05,18,00,11,4.70
2012,05,18,00,12,4.70
2012,05,18,00,13,4.70
2012,05,18,00,14,4.60
2012,05,18,00,15,4.60
2012,05,18,00,16,4.60
2012,05,18,00,17,4.60
2012,05,18,00,18,4.60
2012,05,18,00,19,4.60
2012,05,18,00,20,4.60
2012,05,18,00,21,4.60
2012,05,18,00,22,4.60
2012,05,18,00,23,4.60
2012,05,18,00,24,4.60
2012,05,18,00,25,4.60
2012,05,18,00,26,4.60
2012,05,18,00,27,4.50
2012,05,18,00,28,4.50
2012,05,18,00,29,4.50
2012,05,18,00,30,4.50
2012,05,18,00,31,4.50
2012,05,18,00,32,4.50
2012,05,18,00,33,4.50
2012,05,18,00,34,4.50
2012,05,18,00,35,4.50
2012,05,18,00,36,4.50
2012,05,18,00,37,4.40
2012,05,18,00,38,4.40
2012,05,18,00,39,4.40
2012,05,18,00,40,4.40
2012,05,18,00,41,4.40
2012,05,18,00,42,4.40
2012,05,18,00,43,4.40
2012,05,18,00,44,4.40
2012,05,18,00,45,4.40
2012,05,18,00,46,4.30
2012,05,18,00,47,4.30
2012,05,18,00,48,4.30
2012,05,18,00,49,4.30
2012,05,18,00,50,4.30
2012,05,18,00,51,4.30
2012,05,18,00,52,4.30
2012,05,18,00,53,4.30
2012,05,18,00,54,4.30
2012,05,18,00,55,4.30
2012,05,18,00,56,4.30
2012,05,18,00,57,4.20
2012,05,18,00,58,4.20
2012,05,18,00,59,4.20
2012,05,18,01,00,4.20
2012,05,18,01,01,4.20
2012,05,18,01,02,4.20
2012,05,18,01,03,4.20
2012,05,18,01,04,4.20
2012,05,18,01,05,4.20
2012,05,18,01,06,4.20
2012,05,18,01,07,4.20
2012,05,18,01,08,4.20
2012,05,18,01,09,4.20
2012,05,18,01,10,4.20
2012,05,18,01,11,4.20
2012,05,18,01,12,4.10
2012,05,18,01,13,4.10
2012,05,18,01,14,4.10
2012,05,18,01,15,4.10
2012,05,18,01,16,4.10
2012,05,18,01,17,4.00
2012,05,18,01,18,4.00
2012,05,18,01,19,4.00
2012,05,18,01,20,4.00
2012,05,18,01,21,4.00
2012,05,18,01,22,4.00
2012,05,18,01,23,4.00
2012,05,18,01,24,3.90
2012,05,18,01,25,3.90
2012,05,18,01,26,3.90
2012,05,18,01,27,3.90
2012,05,18,01,28,3.90
2012,05,18,01,29,3.90
2012,05,18,01,30,3.90
2012,05,18,01,31,3.90
2012,05,18,01,32,3.90
2012,05,18,01,33,3.80
2012,05,18,01,34,3.80
2012,05,18,01,35,3.80
2012,05,18,01,36,3.80
2012,05,18,01,37,3.80
2012,05,18,01,38,3.80
2012,05,18,01,39,3.80
2012,05,18,01,40,3.80
2012,05,18,01,41,3.80
2012,05,18,01,42,3.80
2012,05,18,01,43,3.70
2012,05,18,01,44,3.70
2012,05,18,01,45,3.70
2012,05,18,01,46,3.70
2012,05,18,01,47,3.70
2012,05,18,01,48,3.70
2012,05,18,01,49,3.60
2012,05,18,01,50,3.60
2012,05,18,01,51,3.60
2012,05,18,01,52,3.60
2012,05,18,01,53,3.60
2012,05,18,01,54,3.60
2012,05,18,01,55,3.60
2012,05,18,01,56,3.60
2012,05,18,01,57,3.60
2012,05,18,01,58,3.60
2012,05,18,01,59,3.60
2012,05,18,02,00,3.60
2012,05,18,02,01,3.60
2012,05,18,02,02,3.60
2012,05,18,02,03,3.60
2012,05,18,02,04,3.60
2012,05,18,02,05,3.60
2012,05,18,02,06,3.60
2012,05,18,02,07,3.50
2012,05,18,02,08,3.50
2012,05,18,02,09,3.50
2012,05,18,02,10,3.50
2012,05,18,02,11,3.50
2012,05,18,02,12,3.50
2012,05,18,02,13,3.50
2012,05,18,02,14,3.60
2012,05,18,02,15,3.60
2012,05,18,02,16,3.60
2012,05,18,02,17,3.60
2012,05,18,02,18,3.60
2012,05,18,02,19,3.60
2012,05,18,02,20,3.60
2012,05,18,02,21,3.60
2012,05,18,02,22,3.60
2012,05,18,02,23,3.60
2012,05,18,02,24,3.60
2012,05,18,02,25,3.60
2012,05,18,02,26,3.60
2012,05,18,02,27,3.60
2012,05,18,02,28,3.60
2012,05,18,02,29,3.60
2012,05,18,02,30,3.60
2012,05,18,02,31,3.60
2012,05,18,02,32,3.60
2012,05,18,02,33,3.60
2012,05,18,02,34,3.60
2012,05,18,02,35,3.60
2012,05,18,02,36,3.60
2012,05,18,02,37,3.60
2012,05,18,02,38,3.60
2012,05,18,02,39,3.60
2012,05,18,02,40,3.60
2012,05,18,02,41,3.60
2012,05,18,02,42,3.60
2012,05,18,02,43,3.60
2012,05,18,02,44,3.60
2012,05,18,02,45,3.60
2012,05,18,02,46,3.60
2012,05,18,02,47,3.60
2012,05,18,02,48,3.60
2012,05,18,02,49,3.60
2012,05,18,02,50,3.60
2012,05,18,02,51,3.60
2012,05,18,02,52,3.60
2012,05,18,02,53,3.60
2012,05,18,02,54,3.50
2012,05,18,02,55,3.50
2012,05,18,02,56,3.50
2012,05,18,02,57,3.50
2012,05,18,02,58,3.50
2012,05,18,02,59,3.50
2012,05,18,03,00,3.50
2012,05,18,03,01,3.40
2012,05,18,03,02,3.40
2012,05,18,03,03,3.40
2012,05,18,03,04,3.40
2012,05,18,03,05,3.40
2012,05,18,03,06,3.40
2012,05,18,03,07,3.40
2012,05,18,03,08,3.40
2012,05,18,03,09,3.40
2012,05,18,03,10,3.40
2012,05,18,03,11,3.40
2012,05,18,03,12,3.40
2012,05,18,03,13,3.40
2012,05,18,03,14,3.40
2012,05,18,03,15,3.40
2012,05,18,03,16,3.30
2012,05,18,03,17,3.30
2012,05,18,03,18,3.30
2012,05,18,03,19,3.30
2012,05,18,03,20,3.30
2012,05,18,03,21,3.30
2012,05,18,03,22,3.30
2012,05,18,03,23,3.30
2012,05,18,03,24,3.30
2012,05,18,03,25,3.30
2012,05,18,03,26,3.30
2012,05,18,03,27,3.30
2012,05,18,03,28,3.30
2012,05,18,03,29,3.30
2012,05,18,03,30,3.30
2012,05,18,03,31,3.30
2012,05,18,03,32,3.30
2012,05,18,03,33,3.30
2012,05,18,03,34,3.30
2012,05,18,03,35,3.30
2012,05,18,03,36,3.30
2012,05,18,03,37,3.20
2012,05,18,03,38,3.20
2012,05,18,03,39,3.20
2012,05,18,03,40,3.30
2012,05,18,03,41,3.30
2012,05,18,03,42,3.30
2012,05,18,03,43,3.30
2012,05,18,03,44,3.30
2012,05,18,03,45,3.30
2012,05,18,03,46,3.30
2012,05,18,03,47,3.30
2012,05,18,03,48,3.30
2012,05,18,03,49,3.30
2012,05,18,03,50,3.30
2012,05,18,03,51,3.30
2012,05,18,03,52,3.30
2012,05,18,03,53,3.30
2012,05,18,03,54,3.30
2012,05,18,03,55,3.30
2012,05,18,03,56,3.30
2012,05,18,03,57,3.30
2012,05,18,03,58,3.30
2012,05,18,03,59,3.30
2012,05,18,04,00,3.30
2012,05,18,04,01,3.30
2012,05,18,04,02,3.30
2012,05,18,04,03,3.30
2012,05,18,04,04,3.30
2012,05,18,04,05,3.30
2012,05,18,04,06,3.30
2012,05,18,04,07,3.30
2012,05,18,04,08,3.30
2012,05,18,04,09,3.30
2012,05,18,04,10,3.30
2012,05,18,04,11,3.30
2012,05,18,04,12,3.30
2012,05,18,04,13,3.30
2012,05,18,04,14,3.30
2012,05,18,04,15,3.30
2012,05,18,04,16,3.30
2012,05,18,04,17,3.30
2012,05,18,04,18,3.30
2012,05,18,04,19,3.30
2012,05,18,04,20,3.30
2012,05,18,04,21,3.30
2012,05,18,04,22,3.30
2012,05,18,04,23,3.40
2012,05,18,04,24,3.40
2012,05,18,04,25,3.40
2012,05,18,04,26,3.50
2012,05,18,04,27,3.50
2012,05,18,04,28,3.50
2012,05,18,04,29,3.50
2012,05,18,04,30,3.50
2012,05,18,04,31,3.50
2012,05,18,04,32,3.60
2012,05,18,04,33,3.60
2012,05,18,04,34,3.60
2012,05,18,04,35,3.60
2012,05,18,04,36,3.60
2012,05,18,04,37,3.50
2012,05,18,04,38,3.50
2012,05,18,04,39,3.50
2012,05,18,04,40,3.50
2012,05,18,04,41,3.50
2012,05,18,04,42,3.50
2012,05,18,04,43,3.50
2012,05,18,04,44,3.50
2012,05,18,04,45,3.40
2012,05,18,04,46,3.40
2012,05,18,04,47,3.40
2012,05,18,04,48,3.40
2012,05,18,04,49,3.40
2012,05,18,04,50,3.40
2012,05,18,04,51,3.40
2012,05,18,04,52,3.40
2012,05,18,04,53,3.30
2012,05,18,04,54,3.30
2012,05,18,04,55,3.30
2012,05,18,04,56,3.30
2012,05,18,04,57,3.30
2012,05,18,04,58,3.30
2012,05,18,04,59,3.30
2012,05,18,05,00,3.30
2012,05,18,05,01,3.30
2012,05,18,05,02,3.20
2012,05,18,05,03,3.20
2012,05,18,05,04,3.20
2012,05,18,05,05,3.20
2012,05,18,05,06,3.20
2012,05,18,05,07,3.20
2012,05,18,05,08,3.20
2012,05,18,05,09,3.20
2012,05,18,05,10,3.30
2012,05,18,05,11,3.30
2012,05,18,05,12,3.30
2012,05,18,05,13,3.30
2012,05,18,05,14,3.30
2012,05,18,05,15,3.30
2012,05,18,05,16,3.30
2012,05,18,05,17,3.30
2012,05,18,05,18,3.30
2012,05,18,05,19,3.30
2012,05,18,05,20,3.30
2012,05,18,05,21,3.30
2012,05,18,05,22,3.30
2012,05,18,05,23,3.30
2012,05,18,05,24,3.30
2012,05,18,05,25,3.30
2012,05,18,05,26,3.30
2012,05,18,05,27,3.30
2012,05,18,05,28,3.30
2012,05,18,05,29,3.20
2012,05,18,05,30,3.20
2012,05,18,05,31,3.20
2012,05,18,05,32,3.20
2012,05,18,05,33,3.20
2012,05,18,05,34,3.20
2012,05,18,05,35,3.20
2012,05,18,05,36,3.10
2012,05,18,05,37,3.10
2012,05,18,05,38,3.10
2012,05,18,05,39,3.10
2012,05,18,05,40,3.10
2012,05,18,05,41,3.10
2012,05,18,05,42,3.10
2012,05,18,05,43,3.10
2012,05,18,05,44,3.10
2012,05,18,05,45,3.10
2012,05,18,05,46,2.90
2012,05,18,05,47,2.90
2012,05,18,05,48,2.90
2012,05,18,05,49,2.90
2012,05,18,05,50,2.90
2012,05,18,05,51,2.90
2012,05,18,05,52,2.90
2012,05,18,05,53,2.90
2012,05,18,05,54,2.90
2012,05,18,05,55,2.90
2012,05,18,05,56,2.90
2012,05,18,05,57,2.90
2012,05,18,05,58,2.90
2012,05,18,05,59,2.90
2012,05,18,06,00,2.90
2012,05,18,06,01,2.90
2012,05,18,06,02,2.90
2012,05,18,06,03,2.90
2012,05,18,06,04,2.90
2012,05,18,06,05,2.90
2012,05,18,06,06,2.90
2012,05,18,06,07,2.90
2012,05,18,06,08,2.90
2012,05,18,06,09,2.90
2012,05,18,06,10,2.90
2012,05,18,06,11,2.90
2012,05,18,06,12,2.90
2012,05,18,06,13,2.90
2012,05,18,06,14,2.90
2012,05,18,06,15,2.90
2012,05,18,06,16,2.90
2012,05,18,06,17,2.90
2012,05,18,06,18,2.90
2012,05,18,06,19,2.90
2012,05,18,06,20,2.90
2012,05,18,06,21,2.90
2012,05,18,06,22,2.90
2012,05,18,06,23,2.90
2012,05,18,06,24,2.90
2012,05,18,06,25,2.90
2012,05,18,06,26,2.90
2012,05,18,06,27,3.00
2012,05,18,06,28,3.10
2012,05,18,06,29,3.10
2012,05,18,06,30,3.10
2012,05,18,06,31,3.10
2012,05,18,06,32,3.10
2012,05,18,06,33,3.10
2012,05,18,06,34,3.10
2012,05,18,06,35,3.10
2012,05,18,06,36,3.20
2012,05,18,06,37,3.20
2012,05,18,06,38,3.20
2012,05,18,06,39,3.30
2012,05,18,06,40,3.30
2012,05,18,06,41,3.30
2012,05,18,06,42,3.30
2012,05,18,06,43,3.30
2012,05,18,06,44,3.40
2012,05,18,06,45,3.50
2012,05,18,06,46,3.50
2012,05,18,06,47,3.50
2012,05,18,06,48,3.60
2012,05,18,06,49,3.60
2012,05,18,06,50,3.70
2012,05,18,06,51,3.70
2012,05,18,06,52,3.80
2012,05,18,06,53,3.80
2012,05,18,06,54,3.80
2012,05,18,06,55,3.90
2012,05,18,06,56,3.90
2012,05,18,06,57,3.90
2012,05,18,06,58,4.00
2012,05,18,06,59,4.00
2012,05,18,07,00,4.00
2012,05,18,07,01,4.10
2012,05,18,07,02,4.10
2012,05,18,07,03,4.20
2012,05,18,07,04,4.20
2012,05,18,07,05,4.20
2012,05,18,07,06,4.20
2012,05,18,07,07,4.20
2012,05,18,07,08,4.20
2012,05,18,07,09,4.30
2012,05,18,07,10,4.30
2012,05,18,07,11,4.30
2012,05,18,07,12,4.40
2012,05,18,07,13,4.40
2012,05,18,07,14,4.40
2012,05,18,07,15,4.50
2012,05,18,07,16,4.50
2012,05,18,07,17,4.50
2012,05,18,07,18,4.60
2012,05,18,07,19,4.60
2012,05,18,07,20,4.60
2012,05,18,07,21,4.60
2012,05,18,07,22,4.60
2012,05,18,07,23,4.70
2012,05,18,07,24,4.70
2012,05,18,07,25,4.70
2012,05,18,07,26,4.80
2012,05,18,07,27,4.80
2012,05,18,07,28,4.80
2012,05,18,07,29,4.90
2012,05,18,07,30,4.90
2012,05,18,07,31,4.90
2012,05,18,07,32,5.00
2012,05,18,07,33,5.10
2012,05,18,07,34,5.10
2012,05,18,07,35,5.10
2012,05,18,07,36,5.20
2012,05,18,07,37,5.20
2012,05,18,07,38,5.30
2012,05,18,07,39,5.30
2012,05,18,07,40,5.40
2012,05,18,07,41,5.40
2012,05,18,07,42,5.50
2012,05,18,07,43,5.50
2012,05,18,07,44,5.60
2012,05,18,07,45,5.70
2012,05,18,07,46,5.70
2012,05,18,07,47,5.70
2012,05,18,07,48,5.80
2012,05,18,07,49,5.80
2012,05,18,07,50,5.90
2012,05,18,07,51,5.90
2012,05,18,07,52,6.00
2012,05,18,07,53,6.00
2012,05,18,07,54,6.10
2012,05,18,07,55,6.20
2012,05,18,07,56,6.20
2012,05,18,07,57,6.20
2012,05,18,07,58,6.20
2012,05,18,07,59,6.30
2012,05,18,08,00,6.30
2012,05,18,08,01,6.40
2012,05,18,08,02,6.40
2012,05,18,08,03,6.40
2012,05,18,08,04,6.50
2012,05,18,08,05,6.60
2012,05,18,08,06,6.60
2012,05,18,08,07,6.60
2012,05,18,08,08,6.60
2012,05,18,08,09,6.60
2012,05,18,08,10,6.70
2012,05,18,08,11,6.70
2012,05,18,08,12,6.80
2012,05,18,08,13,6.80
2012,05,18,08,14,6.90
2012,05,18,08,15,7.00
2012,05,18,08,16,7.00
2012,05,18,08,17,7.00
2012,05,18,08,18,7.10
2012,05,18,08,19,7.10
2012,05,18,08,20,7.20
2012,05,18,08,21,7.30
2012,05,18,08,22,7.30
2012,05,18,08,23,7.30
2012,05,18,08,24,7.30
2012,05,18,08,25,7.30
2012,05,18,08,26,7.40
2012,05,18,08,27,7.50
2012,05,18,08,28,7.50
2012,05,18,08,29,7.50
2012,05,18,08,30,7.50
2012,05,18,08,31,7.60
2012,05,18,08,32,7.60
2012,05,18,08,33,7.70
2012,05,18,08,34,7.70
2012,05,18,08,35,7.70
2012,05,18,08,36,7.80
2012,05,18,08,37,7.80
2012,05,18,08,38,7.80
2012,05,18,08,39,7.90
2012,05,18,08,40,7.90
2012,05,18,08,41,8.00
2012,05,18,08,42,8.00
2012,05,18,08,43,8.10
2012,05,18,08,44,8.20
2012,05,18,08,45,8.20
2012,05,18,08,46,8.20
2012,05,18,08,47,8.20
2012,05,18,08,48,8.20
2012,05,18,08,49,8.30
2012,05,18,08,50,8.30
2012,05,18,08,51,8.30
2012,05,18,08,52,8.30
2012,05,18,08,53,8.30
2012,05,18,08,54,8.40
2012,05,18,08,55,8.40
2012,05,18,08,56,8.50
2012,05,18,08,57,8.50
2012,05,18,08,58,8.50
2012,05,18,08,59,8.50
2012,05,18,09,00,8.60
2012,05,18,09,01,8.60
2012,05,18,09,02,8.60
2012,05,18,09,03,8.60
2012,05,18,09,04,8.60
2012,05,18,09,05,8.60
2012,05,18,09,06,8.60
2012,05,18,09,07,8.70
2012,05,18,09,08,8.70
2012,05,18,09,09,8.70
2012,05,18,09,10,8.70
2012,05,18,09,11,8.70
2012,05,18,09,12,8.70
2012,05,18,09,13,8.70
2012,05,18,09,14,8.70
2012,05,18,09,15,8.70
2012,05,18,09,16,8.70
2012,05,18,09,17,8.70
2012,05,18,09,18,8.80
2012,05,18,09,19,8.80
2012,05,18,09,20,8.80
2012,05,18,09,21,8.90
2012,05,18,09,22,8.90
2012,05,18,09,23,8.90
2012,05,18,09,24,8.90
2012,05,18,09,25,9.00
2012,05,18,09,26,9.00
2012,05,18,09,27,9.10
2012,05,18,09,28,9.10
2012,05,18,09,29,9.10
2012,05,18,09,30,9.20
2012,05,18,09,31,9.20
2012,05,18,09,32,9.20
2012,05,18,09,33,9.20
2012,05,18,09,34,9.20
2012,05,18,09,35,9.20
2012,05,18,09,36,9.20
2012,05,18,09,37,9.20
2012,05,18,09,38,9.20
2012,05,18,09,39,9.20
2012,05,18,09,40,9.30
2012,05,18,09,41,9.30
2012,05,18,09,42,9.40
2012,05,18,09,43,9.40
2012,05,18,09,44,9.50
2012,05,18,09,45,9.50
2012,05,18,09,46,9.50
2012,05,18,09,47,9.50
2012,05,18,09,48,9.50
2012,05,18,09,49,9.50
2012,05,18,09,50,9.50
2012,05,18,09,51,9.50
2012,05,18,09,52,9.60
2012,05,18,09,53,9.60
2012,05,18,09,54,9.50
2012,05,18,09,55,9.50
2012,05,18,09,56,9.50
2012,05,18,09,57,9.60
2012,05,18,09,58,9.60
2012,05,18,09,59,9.60
2012,05,18,10,00,9.60
2012,05,18,10,01,9.60
2012,05,18,10,02,9.60
2012,05,18,10,03,9.60
2012,05,18,10,04,9.70
2012,05,18,10,05,9.70
2012,05,18,10,06,9.70
2012,05,18,10,07,9.70
2012,05,18,10,08,9.70
2012,05,18,10,09,9.80
2012,05,18,10,10,9.80
2012,05,18,10,11,9.80
2012,05,18,10,12,9.90
2012,05,18,10,13,9.90
2012,05,18,10,14,9.90
2012,05,18,10,15,9.90
2012,05,18,10,16,9.90
2012,05,18,10,17,10.00
2012,05,18,10,18,10.10
2012,05,18,10,19,10.10
2012,05,18,10,20,10.10
2012,05,18,10,21,10.20
2012,05,18,10,22,10.20
2012,05,18,10,23,10.30
2012,05,18,10,24,10.40
2012,05,18,10,25,10.40
2012,05,18,10,26,10.40
2012,05,18,10,27,10.40
2012,05,18,10,28,10.40
2012,05,18,10,29,10.50
2012,05,18,10,30,10.60
2012,05,18,10,31,10.60
2012,05,18,10,32,10.60
2012,05,18,10,33,10.70
2012,05,18,10,34,10.70
2012,05,18,10,35,10.80
2012,05,18,10,36,10.80
2012,05,18,10,37,10.90
2012,05,18,10,38,10.90
2012,05,18,10,39,11.00
2012,05,18,10,40,11.10
2012,05,18,10,41,11.10
2012,05,18,10,42,11.20
2012,05,18,10,43,11.20
2012,05,18,10,44,11.20
2012,05,18,10,45,11.20
2012,05,18,10,46,11.20
2012,05,18,10,47,11.20
2012,05,18,10,48,11.20
2012,05,18,10,49,11.30
2012,05,18,10,50,11.30
2012,05,18,10,51,11.30
2012,05,18,10,52,11.40
2012,05,18,10,53,11.40
2012,05,18,10,54,11.40
2012,05,18,10,55,11.50
2012,05,18,10,56,11.60
2012,05,18,10,57,11.60
2012,05,18,10,58,11.60
2012,05,18,10,59,11.70
2012,05,18,11,00,11.70
2012,05,18,11,01,11.70
2012,05,18,11,02,11.70
2012,05,18,11,03,11.80
2012,05,18,11,04,11.70
2012,05,18,11,05,11.70
2012,05,18,11,06,11.70
2012,05,18,11,07,11.60
2012,05,18,11,08,11.60
2012,05,18,11,09,11.60
2012,05,18,11,10,11.60
2012,05,18,11,11,11.40
2012,05,18,11,12,11.40
2012,05,18,11,13,11.40
2012,05,18,11,14,11.40
2012,05,18,11,15,11.40
2012,05,18,11,16,11.30
2012,05,18,11,17,11.20
2012,05,18,11,18,11.20
2012,05,18,11,19,11.20
2012,05,18,11,20,11.10
2012,05,18,11,21,11.10
2012,05,18,11,22,11.10
2012,05,18,11,23,11.10
2012,05,18,11,24,11.10
2012,05,18,11,25,11.10
2012,05,18,11,26,11.10
2012,05,18,11,27,11.10
2012,05,18,11,28,11.20
2012,05,18,11,29,11.30
2012,05,18,11,30,11.30
2012,05,18,11,31,11.30
2012,05,18,11,32,11.40
2012,05,18,11,33,11.40
2012,05,18,11,34,11.40
2012,05,18,11,35,11.50
2012,05,18,11,36,11.60
2012,05,18,11,37,11.60
2012,05,18,11,38,11.60
2012,05,18,11,39,11.60
2012,05,18,11,40,11.60
2012,05,18,11,41,11.60
2012,05,18,11,42,11.60
2012,05,18,11,43,11.50
2012,05,18,11,44,11.50
2012,05,18,11,45,11.40
2012,05,18,11,46,11.60
2012,05,18,11,47,11.60
2012,05,18,11,48,11.50
2012,05,18,11,49,11.40
2012,05,18,11,50,11.40
2012,05,18,11,51,11.40
2012,05,18,11,52,11.40
2012,05,18,11,53,11.40
2012,05,18,11,54,11.40
2012,05,18,11,55,11.40
2012,05,18,11,56,11.40
2012,05,18,11,57,11.30
2012,05,18,11,58,11.30
2012,05,18,11,59,11.30
2012,05,18,12,00,11.30
2012,05,18,12,01,11.30
2012,05,18,12,02,11.30
2012,05,18,12,03,11.40
2012,05,18,12,04,11.50
2012,05,18,12,05,11.60
2012,05,18,12,06,11.60
2012,05,18,12,07,11.60
2012,05,18,12,08,11.60
2012,05,18,12,09,11.70
2012,05,18,12,10,11.80
2012,05,18,12,11,11.80
2012,05,18,12,12,11.90
2012,05,18,12,13,11.90
2012,05,18,12,14,12.00
2012,05,18,12,15,12.10
2012,05,18,12,16,12.30
2012,05,18,12,17,12.40
2012,05,18,12,18,12.50
2012,05,18,12,19,12.50
2012,05,18,12,20,12.60
2012,05,18,12,21,12.60
2012,05,18,12,22,12.60
2012,05,18,12,23,12.50
2012,05,18,12,24,12.40
2012,05,18,12,25,12.30
2012,05,18,12,26,12.20
2012,05,18,12,27,12.10
2012,05,18,12,28,12.10
2012,05,18,12,29,12.00
2012,05,18,12,30,12.00
2012,05,18,12,31,12.00
2012,05,18,12,32,12.00
2012,05,18,12,33,12.00
2012,05,18,12,34,11.90
2012,05,18,12,35,11.90
2012,05,18,12,36,11.80
2012,05,18,12,37,11.80
2012,05,18,12,38,11.80
2012,05,18,12,39,11.80
2012,05,18,12,40,11.80
2012,05,18,12,41,11.80
2012,05,18,12,42,11.80
2012,05,18,12,43,11.80
2012,05,18,12,44,11.80
2012,05,18,12,45,11.80
2012,05,18,12,46,11.90
2012,05,18,12,47,12.00
2012,05,18,12,48,12.10
2012,05,18,12,49,12.20
2012,05,18,12,50,12.40
2012,05,18,12,51,12.50
2012,05,18,12,52,12.60
2012,05,18,12,53,12.70
2012,05,18,12,54,12.80
2012,05,18,12,55,12.90
2012,05,18,12,56,13.00
2012,05,18,12,57,13.10
2012,05,18,12,58,13.10
2012,05,18,12,59,13.10
2012,05,18,13,00,13.10
2012,05,18,13,01,13.00
2012,05,18,13,02,13.00
2012,05,18,13,03,12.90
2012,05,18,13,04,12.90
2012,05,18,13,05,12.80
2012,05,18,13,06,12.80
2012,05,18,13,07,12.80
2012,05,18,13,08,12.80
2012,05,18,13,09,12.80
2012,05,18,13,10,12.90
2012,05,18,13,11,13.00
2012,05,18,13,12,13.00
2012,05,18,13,13,13.00
2012,05,18,13,14,13.00
2012,05,18,13,15,13.00
2012,05,18,13,16,13.00
2012,05,18,13,17,12.90
2012,05,18,13,18,13.00
2012,05,18,13,19,12.90
2012,05,18,13,20,12.90
2012,05,18,13,21,12.90
2012,05,18,13,22,13.00
2012,05,18,13,23,13.10
2012,05,18,13,24,13.10
2012,05,18,13,25,13.30
2012,05,18,13,26,13.40
2012,05,18,13,27,13.50
2012,05,18,13,28,13.60
2012,05,18,13,29,13.70
2012,05,18,13,30,13.70
2012,05,18,13,31,13.70
2012,05,18,13,32,13.70
2012,05,18,13,33,13.50
2012,05,18,13,34,13.40
2012,05,18,13,35,13.30
2012,05,18,13,36,13.30
2012,05,18,13,37,13.20
2012,05,18,13,38,13.10
2012,05,18,13,39,13.00
2012,05,18,13,40,12.90
2012,05,18,13,41,12.80
2012,05,18,13,42,12.80
2012,05,18,13,43,12.80
2012,05,18,13,44,12.80
2012,05,18,13,45,12.80
2012,05,18,13,46,12.90
2012,05,18,13,47,13.00
2012,05,18,13,48,13.00
2012,05,18,13,49,13.00
2012,05,18,13,50,13.10
2012,05,18,13,51,13.00
2012,05,18,13,52,12.90
2012,05,18,13,53,12.90
2012,05,18,13,54,12.90
2012,05,18,13,55,12.80
2012,05,18,13,56,12.80
2012,05,18,13,57,12.70
2012,05,18,13,58,12.70
2012,05,18,13,59,12.60
2012,05,18,14,00,12.50
2012,05,18,14,01,12.60
2012,05,18,14,02,12.60
2012,05,18,14,03,12.70
2012,05,18,14,04,12.80
2012,05,18,14,05,12.80
2012,05,18,14,06,12.80
2012,05,18,14,07,12.80
2012,05,18,14,08,12.80
2012,05,18,14,09,12.70
2012,05,18,14,10,12.70
2012,05,18,14,11,12.70
2012,05,18,14,12,12.80
2012,05,18,14,13,12.90
2012,05,18,14,14,13.00
2012,05,18,14,15,13.10
2012,05,18,14,16,13.20
2012,05,18,14,17,13.30
2012,05,18,14,18,13.20
2012,05,18,14,19,13.20
2012,05,18,14,20,13.20
2012,05,18,14,21,13.20
2012,05,18,14,22,13.20
2012,05,18,14,23,13.20
2012,05,18,14,24,13.10
2012,05,18,14,25,13.00
2012,05,18,14,26,12.90
2012,05,18,14,27,12.80
2012,05,18,14,28,12.70
2012,05,18,14,29,12.60
2012,05,18,14,30,12.50
2012,05,18,14,31,12.50
2012,05,18,14,32,12.40
2012,05,18,14,33,12.40
2012,05,18,14,34,12.30
2012,05,18,14,35,12.30
2012,05,18,14,36,12.30
2012,05,18,14,37,12.30
2012,05,18,14,38,12.40
2012,05,18,14,39,12.40
2012,05,18,14,40,12.40
2012,05,18,14,41,12.40
2012,05,18,14,42,12.40
2012,05,18,14,43,12.40
2012,05,18,14,44,12.50
2012,05,18,14,45,12.50
2012,05,18,14,46,12.50
2012,05,18,14,47,12.60
2012,05,18,14,48,12.70
2012,05,18,14,49,12.80
2012,05,18,14,50,12.90
2012,05,18,14,51,13.00
2012,05,18,14,52,13.00
2012,05,18,14,53,13.00
2012,05,18,14,54,13.00
2012,05,18,14,55,13.00
2012,05,18,14,56,13.00
2012,05,18,14,57,13.00
2012,05,18,14,58,12.90
2012,05,18,14,59,12.90
2012,05,18,15,00,13.00
2012,05,18,15,01,13.00
2012,05,18,15,02,13.00
2012,05,18,15,03,13.00
2012,05,18,15,04,12.90
2012,05,18,15,05,12.90
2012,05,18,15,06,12.80
2012,05,18,15,07,12.80
2012,05,18,15,08,12.80
2012,05,18,15,09,12.70
2012,05,18,15,10,12.60
2012,05,18,15,11,12.60
2012,05,18,15,12,12.60
2012,05,18,15,13,12.60
2012,05,18,15,14,12.70
2012,05,18,15,15,12.70
2012,05,18,15,16,12.70
2012,05,18,15,17,12.70
2012,05,18,15,18,12.70
2012,05,18,15,19,12.70
2012,05,18,15,20,12.70
2012,05,18,15,21,12.60
2012,05,18,15,22,12.60
2012,05,18,15,23,12.60
2012,05,18,15,24,12.60
2012,05,18,15,25,12.60
2012,05,18,15,26,12.50
2012,05,18,15,27,12.50
2012,05,18,15,28,12.50
2012,05,18,15,29,12.50
2012,05,18,15,30,12.50
2012,05,18,15,31,12.50
2012,05,18,15,32,12.50
2012,05,18,15,33,12.50
2012,05,18,15,34,12.50
2012,05,18,15,35,12.50
2012,05,18,15,36,12.50
2012,05,18,15,37,12.50
2012,05,18,15,38,12.50
2012,05,18,15,39,12.50
2012,05,18,15,40,12.50
2012,05,18,15,41,12.50
2012,05,18,15,42,12.50
2012,05,18,15,43,12.60
2012,05,18,15,44,12.60
2012,05,18,15,45,12.60
2012,05,18,15,46,12.60
2012,05,18,15,47,12.60
2012,05,18,15,48,12.60
2012,05,18,15,49,12.60
2012,05,18,15,50,12.60
2012,05,18,15,51,12.60
2012,05,18,15,52,12.60
2012,05,18,15,53,12.50
2012,05,18,15,54,12.50
2012,05,18,15,55,12.30
2012,05,18,15,56,12.30
2012,05,18,15,57,12.20
2012,05,18,15,58,12.10
2012,05,18,15,59,12.10
2012,05,18,16,00,12.00
2012,05,18,16,01,12.00
2012,05,18,16,02,12.00
2012,05,18,16,03,11.90
2012,05,18,16,04,11.90
2012,05,18,16,05,11.90
2012,05,18,16,06,11.90
2012,05,18,16,07,11.80
2012,05,18,16,08,11.80
2012,05,18,16,09,11.80
2012,05,18,16,10,11.80
2012,05,18,16,11,11.80
2012,05,18,16,12,11.80
2012,05,18,16,13,11.80
2012,05,18,16,14,11.90
2012,05,18,16,15,11.90
2012,05,18,16,16,12.00
2012,05,18,16,17,12.00
2012,05,18,16,18,12.10
2012,05,18,16,19,12.10
2012,05,18,16,20,12.10
2012,05,18,16,21,12.20
2012,05,18,16,22,12.20
2012,05,18,16,23,12.30
2012,05,18,16,24,12.30
2012,05,18,16,25,12.30
2012,05,18,16,26,12.30
2012,05,18,16,27,12.30
2012,05,18,16,28,12.30
2012,05,18,16,29,12.30
2012,05,18,16,30,12.30
2012,05,18,16,31,12.30
2012,05,18,16,32,12.30
2012,05,18,16,33,12.30
2012,05,18,16,34,12.30
2012,05,18,16,35,12.30
2012,05,18,16,36,12.30
2012,05,18,16,37,12.30
2012,05,18,16,38,12.30
2012,05,18,16,39,12.20
2012,05,18,16,40,12.30
2012,05,18,16,41,12.30
2012,05,18,16,42,12.30
2012,05,18,16,43,12.20
2012,05,18,16,44,12.20
2012,05,18,16,45,12.20
2012,05,18,16,46,12.20
2012,05,18,16,47,12.20
2012,05,18,16,48,12.20
2012,05,18,16,49,12.20
2012,05,18,16,50,12.30
2012,05,18,16,51,12.30
2012,05,18,16,52,12.30
2012,05,18,16,53,12.30
2012,05,18,16,54,12.30
2012,05,18,16,55,12.30
2012,05,18,16,56,12.30
2012,05,18,16,57,12.30
2012,05,18,16,58,12.30
2012,05,18,16,59,12.30
2012,05,18,17,00,12.40
2012,05,18,17,01,12.40
2012,05,18,17,02,12.40
2012,05,18,17,03,12.40
2012,05,18,17,04,12.50
2012,05,18,17,05,12.50
2012,05,18,17,06,12.50
2012,05,18,17,07,12.50
2012,05,18,17,08,12.50
2012,05,18,17,09,12.50
2012,05,18,17,10,12.50
2012,05,18,17,11,12.60
2012,05,18,17,12,12.70
2012,05,18,17,13,12.70
2012,05,18,17,14,12.80
2012,05,18,17,15,12.80
2012,05,18,17,16,12.80
2012,05,18,17,17,12.90
2012,05,18,17,18,13.00
2012,05,18,17,19,13.10
2012,05,18,17,20,13.10
2012,05,18,17,21,13.10
2012,05,18,17,22,13.20
2012,05,18,17,23,13.20
2012,05,18,17,24,13.30
2012,05,18,17,25,13.30
2012,05,18,17,26,13.30
2012,05,18,17,27,13.40
2012,05,18,17,28,13.40
2012,05,18,17,29,13.50
2012,05,18,17,30,13.50
2012,05,18,17,31,13.50
2012,05,18,17,32,13.50
2012,05,18,17,33,13.40
2012,05,18,17,34,13.40
2012,05,18,17,35,13.40
2012,05,18,17,36,13.40
2012,05,18,17,37,13.50
2012,05,18,17,38,13.40
2012,05,18,17,39,13.40
2012,05,18,17,40,13.40
2012,05,18,17,41,13.40
2012,05,18,17,42,13.40
2012,05,18,17,43,13.50
2012,05,18,17,44,13.50
2012,05,18,17,45,13.50
2012,05,18,17,46,13.50